Regional Weather Roundup
Issued by NWS

Home | Current Version | Previous Version | Text Only | Print | Product List | Glossary Off
Versions: 1 2 3 4 5 6 7 8 9 10 11 12 13 14 15 16 17 18 19 20 21 22 23 24 25 26 27 28 29 30 31 32 33 34 35 36 37 38 39 40 41 42 43 44 45 46 47 48 49 50

000
ASUS43 KLMK 272310
RWRKY
KENTUCKY REGIONAL WEATHER ROUNDUP
NATIONAL WEATHER SERVICE LOUISVILLE KY
700 PM EDT SAT MAY 27 2017

NOTE "FAIR" INDICATES FEW OR NO CLOUDS BELOW 12,000 FEET
WITH NO SIGNIFICANT WEATHER AND/OR OBSTRUCTIONS TO VISIBILITY.

KYZ001>023-026-027-061>063-070>075-280000-
WESTERN AND SOUTH CENTRAL KENTUCKY

CITY           SKY/WX    TMP DP  RH WIND       PRES   REMARKS
PADUCAH        LGT RAIN  66  62  87 SE14      29.80F
HENDERSON      CLOUDY    77  64  65 SW15      29.79F
OWENSBORO      CLOUDY    81  70  69 W10       29.81S THUNDER
HOPKINSVILLE   TSTM      68  66  94 NW26G48   29.92R VSB 1/4
BOWLING GREEN  CLOUDY    81  72  74 SW15      29.81F
GLASGOW        CLOUDY    71  65  82 SE5       29.85F
$$

KYZ024-025-028>034-038-045-046-053-280000-
NORTH CENTRAL KENTUCKY

CITY           SKY/WX    TMP DP  RH WIND       PRES   REMARKS
LOUISVILLE/SDF CLOUDY    76  67  73 S14G22    29.83S THUNDER
LOUISVILLE/LOU CLOUDY    78  68  71 SW13G20   29.84R
FORT KNOX      TSTM      64  63  94 SW9       29.87R
$$

KYZ035>037-039>044-047>052-055>060-089>105-280000-
NORTHEAST KENTUCKY

CITY           SKY/WX    TMP DP  RH WIND       PRES   REMARKS
LEXINGTON      CLOUDY    71  65  81 SE8       29.88R
COVINGTON      PTSUNNY   83  67  58 SW6       29.83S
FRANKFORT      CLOUDY    75  66  73 S3        29.82F
$$

KYZ054-064>069-076>088-106>120-280000-
SOUTHEAST KENTUCKY

CITY           SKY/WX    TMP DP  RH WIND       PRES   REMARKS
JACKSON        MOSUNNY   65  62  90 CALM      29.93R
LONDON         CLOUDY    72  68  87 N5        29.91R THUNDER
SOMERSET       CLOUDY    70  61  73 CALM      29.89F
MIDDLESBORO    CLOUDY    79  68  69 S7        29.92R THUNDER
MONTICELLO     CLOUDY    79  70  74 NW9G21    29.90S
$$




USA.gov is the U.S. government's official web portal to all federal, state and local government web resources and services.